Regional Weather Roundup
Issued by NWS

Home | Current Version | Previous Version | Text Only | Print | Product List | Glossary Off
Versions: 1 2 3 4 5 6 7 8 9 10 11 12 13 14 15 16 17 18 19 20 21 22 23 24 25 26 27 28 29 30 31 32 33 34 35 36 37 38 39 40 41 42 43 44 45 46 47 48 49 50

000
ASUS45 KCYS 311010
RWRWY

WYOMING REGIONAL WEATHER ROUNDUP
NATIONAL WEATHER SERVICE CHEYENNE WY
400 AM MDT THU JUL 31 2014

NOTE:  "FAIR" INDICATES FEW OR NO CLOUDS BELOW 12,000 FEET
WITH NO SIGNIFICANT WEATHER AND/OR OBSTRUCTIONS TO VISIBILITY.

WYZ001-311100-
YELLOWSTONE NATIONAL PARK

CITY           SKY/WX    TMP DP  RH WIND       PRES   REMARKS
LK YELLOWSTONE   N/A     42  39  89 NW3       30.47F
W YELLOWSTONE  NOT AVBL

$$
WYZ002>013-054>058-071-098>099-311100-
NORTHERN WYOMING

CITY           SKY/WX    TMP DP  RH WIND       PRES   REMARKS
JACKSON        CLEAR     45  41  87 N7        30.39F
CODY           NOT AVBL
GREYBULL       CLEAR     61  41  47 SE6       30.19S
WORLAND        CLEAR     59  42  53 SE8       30.20S
SHERIDAN       CLEAR     51  42  71 CALM      30.19S
BUFFALO        CLEAR     62  34  35 W6        30.26F
GILLETTE       CLEAR     56  45  66 S10       30.22S
HULETT         FAIR      52  45  76 MISG      30.23
NEWCASTLE      FAIR      54  39  58 N7        30.24

$$
WYZ014>020-022>026-101>103-311100-
CENTRAL WYOMING

CITY           SKY/WX    TMP DP  RH WIND       PRES   REMARKS
BIG PINEY      CLEAR     42  40  92 N3        30.41F
PINEDALE       SUNNY     36  36 100 W5        30.42F WCI  32
DUBOIS         FAIR      43  34  70 NW10      30.41F
LANDER         CLEAR     54  44  69 NE5       30.28F
RIVERTON       CLEAR     57  40  52 NW15      30.28F
CASPER         CLEAR     49  43  80 N5        30.29S
DOUGLAS        CLEAR     52  47  83 N6        30.28R

$$
WYZ021-027>030-104>119-311100-
SOUTHERN WYOMING

CITY           SKY/WX    TMP DP  RH WIND       PRES   REMARKS
EVANSTON       CLEAR     51  48  89 N6        30.38S
KEMMERER       SUNNY     46  43  87 N6        30.40S
FORT BRIDGER     N/A     50  49  93 SE5       30.41F
ROCK SPRINGS   CLEAR     49  42  77 S6        30.36F
DIXON          FAIR      52  45  76 NE6       30.35S
RAWLINS        CLEAR     47  45  93 N6        30.36F
SARATOGA       FAIR      45  45 100 CALM      30.38F
LARAMIE        CLEAR     49  47  93 NE3       30.38S
CHEYENNE       CLEAR     51  48  89 W7        30.32S
TORRINGTON     PTCLDY    57  56  96 N3        30.21S
PINE BLUFFS    FAIR      52  52 100 S5        30.27F FOG

$$


USA.gov is the U.S. government's official web portal to all federal, state and local government web resources and services.